Tracking 20621 objects as of 29-Mar-2020
HD Live streaming from Space Station
objects crossing your sky now

OPS 7684 DEB

Track OPS 7684 DEB now!
10-day predictions


NORAD ID: 3618
Int'l Code: 1968-112D
Perigee: 1,382.4 km
Apogee: 1,513.0 km
Inclination: 80.5 °
Period: 114.7 minutes
Semi major axis: 7818 km
RCS: 0.0651 m2 (small)
Launch date: December 12, 1968
Source: United States (US)
Launch site: AIR FORCE WESTERN TEST RANGE (AFWTR)

Note: This is SATELLITE DEBRIS
aabbcc
Your satellite tracking list
Your tracking list is empty




NASA's NSSDC Master Catalog

Two Line Element Set (TLE):
1  3618U 68112D   20089.56195163 +.00000024 +00000-0 +10773-3 0  9998
2  3618 080.5367 222.7199 0083503 316.8394 161.0159 12.55751089350042
Source of the keplerian elements: AFSPC